Powrót do katalogu

STARLINK-36335

AktywnyŁącznośćSSO
NORAD 68015·PAYLOAD·🇺🇸 United States

Wystrzelony Mar 1, 2026 z Vandenberg Space Force Base

Loading…

Następne Przeloty (najbliższe 24 godziny)

TLE

ŚwieżeSource: CelesTrak SupGP

Epoka: Sep 15, 2026, 03:33 UTC

1 68015C 26040A   26258.14840278  .00056620  00000+0  17579-2 0  2586
2 68015  97.2850 205.4832 0001772  96.3880 222.7071 15.33404880    16

Śledź STARLINK-36335 w czasie rzeczywistym z AllMySat

Download on the App Store